Regional Weather Roundup
Issued by NWS

Home | Current Version | Previous Version | Text Only | Print | Product List | Glossary Off
Versions: 1 2 3 4 5 6 7 8 9 10 11 12 13 14 15 16 17 18 19 20 21 22 23 24 25 26 27 28 29 30 31 32 33 34 35 36 37 38 39 40 41 42 43 44 45 46 47 48 49 50

000
ASUS43 KLMK 101710
RWRKY
KENTUCKY REGIONAL WEATHER ROUNDUP
NATIONAL WEATHER SERVICE LOUISVILLE KY
100 PM EDT THU JUL 10 2014

NOTE "FAIR" INDICATES FEW OR NO CLOUDS BELOW 12,000 FEET
WITH NO SIGNIFICANT WEATHER AND/OR OBSTRUCTIONS TO VISIBILITY.

KYZ001>023-026-027-061>063-070>075-101800-
WESTERN AND SOUTH CENTRAL KENTUCKY

CITY           SKY/WX    TMP DP  RH WIND       PRES   REMARKS
PADUCAH        PTSUNNY   85  67  54 N3        30.12R
HENDERSON      SUNNY     81  63  54 N7        30.12S
OWENSBORO      SUNNY     82  59  45 E7        30.13R
HOPKINSVILLE   PTSUNNY   84  61  45 VRB1      30.11R
BOWLING GREEN  MOSUNNY   86  62  44 CALM      30.11F
GLASGOW        MOSUNNY   84  60  42 NW6       30.11F
$$

KYZ024-025-028>034-038-045-046-053-101800-
NORTH CENTRAL KENTUCKY

CITY           SKY/WX    TMP DP  RH WIND       PRES   REMARKS
LOUISVILLE/SDF MOSUNNY   85  58  39 N7        30.12S
LOUISVILLE/LOU SUNNY     84  59  42 NW7       30.13S
FORT KNOX      SUNNY     80  63  55 N6        30.12S
$$

KYZ035>037-039>044-047>052-055>060-089>105-101800-
NORTHEAST KENTUCKY

CITY           SKY/WX    TMP DP  RH WIND       PRES   REMARKS
LEXINGTON      PTSUNNY   83  61  47 NW3       30.14R
COVINGTON      MOSUNNY   80  54  40 N6        30.14S
FRANKFORT      MOSUNNY   81  61  50 W6        30.13R
$$

KYZ054-064>069-076>088-106>120-101800-
SOUTHEAST KENTUCKY

CITY           SKY/WX    TMP DP  RH WIND       PRES   REMARKS
JACKSON        MOSUNNY   82  57  42 CALM      30.14S
LONDON         PTSUNNY   84  59  42 N7        30.13F
SOMERSET       SUNNY     84  52  32 NW6       30.14S
MIDDLESBORO    PTSUNNY   81  64  56 SW3       30.13F
MONTICELLO     MOSUNNY   86  61  42 CALM      30.15S
$$



USA.gov is the U.S. government's official web portal to all federal, state and local government web resources and services.